Home > Weather > Abu Dhabi > Past weeks

Flag for United Arab Emirates Weather for the Past 2 Weeks in Abu Dhabi, Abu Dhabi, United Arab Emirates

Now
66 °F

Passing clouds.


Feels Like: 66 °F
Forecast: 66 / 69 °F
Wind: 5 mph from Southwest

Location: Abu Dhabi Bateen Airport

Current Time: Feb 11, 2016 at 10:41:31 AM

Latest Report: Feb 11, 2016 at 10:00 AM


Visibility: N/A

Pressure: 30.04 "Hg

Humidity: 68%

Dew point: 55 °F

Location of Abu DhabiLocation

Historic Weather in Abu Dhabi — Graph

°F

Abu Dhabi Temperature Yesterday

Maximum temperature yesterday: 72 °F (at 2:00 PM)
Minimum temperature yesterday: 63 °F (at 2:00 AM)
Average temperature yesterday: 66 °F

High & Low Weather Summary for the Past Weeks

 TemperatureHumidityPressure
High82 °F (Feb 8, 2:00 PM)100% (Feb 7, 8:00 AM)30.27 "Hg (Feb 7, 8:00 AM)
Low54 °F (Feb 7, 8:00 AM)13% (Feb 8, 3:00 PM)29.92 "Hg (Jan 27, 3:00 PM)
Average66 °F60%30.11 "Hg
* Reported Jan 27 10:00 AM — Feb 11 10:00 AM, Abu Dhabi, Weather by CustomWeather, © 2016

Note: Actual official high and low records may vary slightly from our data, if they occured in-between our weather recording intervals... More about our weather records

Advertising

Abu Dhabi Weather History for the Previous 24 Hours

 ConditionsComfort  
Time TempWeatherWind HumidityBarometerVisibility
10:00 AM
Thu, Feb 11
66 °FPassing clouds.5 mph68%30.04 "HgN/A
9:00 AM63 °FPassing clouds.3 mph77%30.04 "HgN/A
8:00 AM61 °FSunny.2 mph83%30.01 "Hg10 mi
7:00 AM57 °FSunny.No wind82%30.01 "Hg10 mi
6:00 AM57 °FClear.2 mph82%30.01 "Hg10 mi
5:00 AM57 °FClear.No wind77%29.98 "Hg10 mi
4:00 AM59 °FClear.2 mph72%29.98 "Hg10 mi
3:00 AM59 °FClear.2 mph72%29.98 "Hg10 mi
2:00 AM59 °FClear.No wind77%30.01 "Hg10 mi
1:00 AM61 °FClear.1 mph72%30.01 "Hg10 mi
12:00 AM63 °FClear.2 mph68%30.01 "Hg10 mi
11:00 PM
Wed, Feb 10
63 °FClear.2 mph64%30.04 "Hg10 mi
10:00 PM64 °FClear.5 mph64%30.04 "Hg10 mi
9:00 PM64 °FClear.7 mph64%30.04 "Hg10 mi
8:00 PM66 °FClear.7 mph60%30.04 "Hg10 mi
7:00 PM66 °FClear.8 mph60%30.01 "Hg10 mi
6:00 PM68 °FPassing clouds.9 mph56%30.01 "HgN/A
5:00 PM70 °FPassing clouds.10 mph50%30.04 "HgN/A
4:00 PM70 °FPassing clouds.10 mph50%30.01 "HgN/A
3:00 PM70 °FPassing clouds.10 mph50%30.04 "HgN/A
2:00 PM72 °FPassing clouds.10 mph50%30.04 "HgN/A
1:00 PM70 °FPassing clouds.9 mph53%30.07 "HgN/A
12:00 PM70 °FPassing clouds.9 mph53%30.09 "HgN/A
11:00 AM68 °FPassing clouds.9 mph53%30.12 "HgN/A
10:00 AM66 °FScattered clouds.9 mph56%30.12 "HgN/A
Weather by CustomWeather, © 2016

See weather overviewHow to use our weather pages